| time (UTC) | temp F | wind direction | speed knots | gust knots | rain 1hr in | rain 24hr in | rain mn in | humidity % | barometer mb |
| 20260504202619 | 60 | 53 | 6.1 | 9.6 | 0.00 | 0.00 | 0.00 | 69 | 1010.4 |
| 20260504202117 | 60 | 215 | 4.3 | 8.7 | 0.00 | 0.00 | 0.00 | 68 | 1010.4 |
| 20260504201613 | 60 | 197 | 5.2 | 7.8 | 0.00 | 0.00 | 0.00 | 68 | 1010.4 |
| 20260504201111 | 61 | 263 | 4.3 | 7.8 | 0.00 | 0.00 | 0.00 | 67 | 1010.4 |
| 20260504200608 | 60 | 72 | 0.9 | 1.7 | 0.00 | 0.00 | 0.00 | 69 | 1010.4 |
| 20260504200104 | 60 | 167 | 5.2 | 7.0 | 0.00 | 0.00 | 0.00 | 68 | 1010.4 |
| 20260504195600 | 61 | 196 | 2.6 | 5.2 | 0.00 | 0.00 | 0.00 | 66 | 1010.5 |
| 20260504195057 | 61 | 207 | 5.2 | 7.0 | 0.00 | 0.00 | 0.00 | 66 | 1010.7 |
| 20260504194554 | 61 | 193 | 3.5 | 6.1 | 0.00 | 0.00 | 0.00 | 68 | 1010.8 |
| 20260504194049 | 61 | 165 | 2.6 | 3.5 | 0.00 | 0.00 | 0.00 | 67 | 1010.9 |
| 20260504193546 | 61 | 49 | 3.5 | 7.0 | 0.00 | 0.00 | 0.00 | 66 | 1010.8 |
| 20260504193044 | 61 | 231 | 5.2 | 6.1 | 0.00 | 0.00 | 0.00 | 67 | 1010.6 |
| 20260504192543 | 62 | 207 | 5.2 | 7.8 | 0.00 | 0.00 | 0.00 | 65 | 1010.9 |
| 20260504192040 | 61 | 190 | 3.5 | 6.1 | 0.00 | 0.00 | 0.00 | 67 | 1010.9 |
| 20260504191538 | 61 | 133 | 7.0 | 9.6 | 0.00 | 0.00 | 0.00 | 66 | 1011.0 |
| 20260504191034 | 61 | 201 | 8.7 | 11.3 | 0.00 | 0.00 | 0.00 | 66 | 1011.1 |
| 20260504190531 | 61 | 232 | 2.6 | 3.5 | 0.00 | 0.00 | 0.00 | 66 | 1011.1 |
| 20260504190026 | 62 | 184 | 3.5 | 6.1 | 0.00 | 0.00 | 0.00 | 66 | 1011.2 |
| 20260504185524 | 62 | 199 | 7.0 | 11.3 | 0.00 | 0.00 | 0.00 | 64 | 1011.0 |
| 20260504185020 | 62 | 163 | 1.7 | 3.5 | 0.00 | 0.00 | 0.00 | 63 | 1011.1 |
| 20260504184515 | 63 | 198 | 4.3 | 6.1 | 0.00 | 0.00 | 0.00 | 62 | 1011.3 |
| 20260504184011 | 63 | 231 | 6.1 | 7.8 | 0.00 | 0.00 | 0.00 | 61 | 1011.5 |
| 20260504183509 | 63 | 198 | 4.3 | 6.1 | 0.00 | 0.00 | 0.00 | 62 | 1011.4 |
| 20260504183007 | 63 | 302 | 1.7 | 2.6 | 0.00 | 0.00 | 0.00 | 62 | 1011.3 |
| 20260504182503 | 62 | 154 | 5.2 | 7.8 | 0.00 | 0.00 | 0.00 | 63 | 1011.5 |
| 20260504182000 | 62 | 262 | 3.5 | 3.5 | 0.00 | 0.00 | 0.00 | 64 | 1011.4 |
| 20260504181457 | 62 | 208 | 7.8 | 13.0 | 0.00 | 0.00 | 0.00 | 62 | 1011.5 |
| 20260504180956 | 62 | 184 | 4.3 | 5.2 | 0.00 | 0.00 | 0.00 | 63 | 1011.5 |
| 20260504180455 | 62 | 200 | 4.3 | 8.7 | 0.00 | 0.00 | 0.00 | 63 | 1011.6 |
| 20260504175952 | 63 | 257 | 5.2 | 7.8 | 0.00 | 0.00 | 0.00 | 62 | 1011.6 |
| 20260504175449 | 63 | 274 | 5.2 | 6.1 | 0.00 | 0.00 | 0.00 | 61 | 1011.8 |
| 20260504174947 | 62 | 178 | 3.5 | 3.5 | 0.00 | 0.00 | 0.00 | 64 | 1011.7 |
| 20260504174444 | 62 | 264 | 4.3 | 6.1 | 0.00 | 0.00 | 0.00 | 62 | 1011.7 |
| 20260504173942 | 62 | 93 | 2.6 | 3.5 | 0.00 | 0.00 | 0.00 | 63 | 1011.8 |
| 20260504173437 | 62 | 229 | 5.2 | 7.8 | 0.00 | 0.00 | 0.00 | 62 | 1011.7 |
| 20260504172935 | 63 | 196 | 2.6 | 3.5 | 0.00 | 0.00 | 0.00 | 63 | 1011.6 |
| 20260504172431 | 63 | 192 | 2.6 | 3.5 | 0.00 | 0.00 | 0.00 | 65 | 1012.0 |
| 20260504171928 | 62 | 274 | 3.5 | 5.2 | 0.00 | 0.00 | 0.00 | 64 | 1012.0 |
| 20260504171425 | 62 | 230 | 4.3 | 6.1 | 0.00 | 0.00 | 0.00 | 64 | 1012.0 |
| 20260504170922 | 61 | 306 | 1.7 | 2.6 | 0.00 | 0.00 | 0.00 | 65 | 1011.9 |
| 20260504170418 | 61 | 147 | 4.3 | 6.1 | 0.00 | 0.00 | 0.00 | 64 | 1012.2 |
| 20260504160337 | 61 | 60 | 2.6 | 3.5 | 0.00 | 0.00 | 0.00 | 63 | 1012.8 |
| 20260504150802 | 62 | 226 | 2.6 | 3.5 | 0.00 | 0.00 | 0.00 | 57 | 1013.4 |
| 20260504150258 | 62 | 209 | 2.6 | 3.5 | 0.00 | 0.00 | 0.00 | 56 | 1013.6 |
| 20260504141228 | 60 | 223 | 2.6 | 3.5 | 0.00 | 0.00 | 0.00 | 58 | 1013.6 |
| 20260504140725 | 60 | 307 | 5.2 | 7.8 | 0.00 | 0.00 | 0.00 | 55 | 1013.6 |
| 20260504140220 | 61 | 251 | 6.1 | 7.8 | 0.00 | 0.00 | 0.00 | 51 | 1013.5 |
| 20260504130649 | 57 | 258 | 1.7 | 1.7 | 0.00 | 0.00 | 0.00 | 59 | 1013.8 |
| 20260504130145 | 57 | 194 | 1.7 | 2.6 | 0.00 | 0.00 | 0.00 | 59 | 1014.0 |
| 20260504120110 | 54 | 225 | 4.3 | 5.2 | 0.00 | 0.00 | 0.00 | 62 | 1014.2 |
| 20260504110537 | 52 | 176 | 1.7 | 2.6 | 0.00 | 0.00 | 0.00 | 63 | 1014.2 |
| 20260504100459 | 49 | 173 | 0.0 | 0.0 | 0.00 | 0.00 | 0.00 | 69 | 1013.9 |
| 20260504081857 | 51 | 241 | 2.6 | 3.5 | 0.00 | 0.00 | 0.00 | 57 | 1013.3 |
| 20260504081354 | 51 | 283 | 3.5 | 3.5 | 0.00 | 0.00 | 0.00 | 58 | 1013.3 |
| 20260504080850 | 50 | 256 | 0.9 | 0.9 | 0.00 | 0.00 | 0.00 | 60 | 1013.2 |
| 20260504080347 | 50 | 256 | 0.9 | 0.9 | 0.00 | 0.00 | 0.00 | 60 | 1013.2 |
| 20260504070315 | 52 | 280 | 3.5 | 3.5 | 0.00 | 0.00 | 0.00 | 55 | 1012.8 |
| 20260504060235 | 52 | 208 | 3.5 | 7.0 | 0.00 | 0.00 | 0.00 | 54 | 1012.8 |
| 20260504050703 | 51 | 259 | 2.6 | 2.6 | 0.00 | 0.00 | 0.00 | 64 | 1012.5 |
| 20260504050200 | 51 | 198 | 0.9 | 0.9 | 0.00 | 0.00 | 0.00 | 63 | 1012.5 |
| 20260504045658 | 51 | 207 | 0.9 | 1.7 | 0.00 | 0.00 | 0.00 | 63 | 1012.7 |
| 20260504045157 | 51 | 237 | 1.7 | 2.6 | 0.00 | 0.00 | 0.00 | 64 | 1012.5 |
| 20260504044655 | 51 | 236 | 1.7 | 2.6 | 0.00 | 0.00 | 0.00 | 64 | 1012.5 |
| 20260504044152 | 51 | 240 | 1.7 | 1.7 | 0.00 | 0.00 | 0.00 | 63 | 1012.5 |
| 20260504043649 | 51 | 200 | 0.9 | 0.9 | 0.00 | 0.00 | 0.00 | 61 | 1012.2 |
| 20260504043146 | 52 | 255 | 1.7 | 1.7 | 0.00 | 0.00 | 0.00 | 59 | 1012.5 |
| 20260504042644 | 52 | 253 | 1.7 | 2.6 | 0.00 | 0.00 | 0.00 | 58 | 1012.5 |
| 20260504042140 | 52 | 268 | 1.7 | 3.5 | 0.00 | 0.00 | 0.00 | 59 | 1012.3 |
| 20260504041636 | 52 | 107 | 1.7 | 1.7 | 0.00 | 0.00 | 0.00 | 60 | 1012.3 |
| 20260504041132 | 52 | 219 | 2.6 | 2.6 | 0.00 | 0.00 | 0.00 | 60 | 1012.2 |
| 20260504040630 | 52 | 227 | 1.7 | 1.7 | 0.00 | 0.00 | 0.00 | 59 | 1012.2 |
| 20260504040126 | 52 | 214 | 0.9 | 0.9 | 0.00 | 0.00 | 0.00 | 58 | 1012.2 |
| 20260504035623 | 52 | 206 | 0.9 | 0.9 | 0.00 | 0.00 | 0.00 | 58 | 1012.2 |
| 20260504035120 | 52 | 232 | 1.7 | 2.6 | 0.00 | 0.00 | 0.00 | 60 | 1012.3 |
| 20260504034618 | 52 | 192 | 0.9 | 0.9 | 0.00 | 0.00 | 0.00 | 61 | 1012.2 |
| 20260504034114 | 52 | 241 | 1.7 | 2.6 | 0.00 | 0.00 | 0.00 | 62 | 1012.2 |
| 20260504033612 | 52 | 213 | 1.7 | 1.7 | 0.00 | 0.00 | 0.00 | 62 | 1012.2 |
| 20260504033109 | 52 | 258 | 1.7 | 1.7 | 0.00 | 0.00 | 0.00 | 61 | 1012.1 |
| 20260504032606 | 52 | 211 | 0.9 | 0.9 | 0.00 | 0.00 | 0.00 | 57 | 1012.1 |
| 20260504032103 | 53 | 192 | 0.0 | 0.9 | 0.00 | 0.00 | 0.00 | 55 | 1012.1 |
| 20260504031600 | 53 | 198 | 0.0 | 0.9 | 0.00 | 0.00 | 0.00 | 54 | 1012.3 |
| 20260504031056 | 53 | 167 | 0.0 | 0.9 | 0.00 | 0.00 | 0.00 | 53 | 1012.1 |
| 20260504030553 | 53 | 211 | 1.7 | 1.7 | 0.00 | 0.00 | 0.00 | 53 | 1012.3 |
| 20260504030049 | 52 | 207 | 0.9 | 1.7 | 0.00 | 0.00 | 0.00 | 56 | 1012.2 |
| 20260504025547 | 53 | 195 | 0.9 | 0.9 | 0.00 | 0.00 | 0.00 | 57 | 1012.2 |
| 20260504025043 | 53 | 206 | 1.7 | 1.7 | 0.00 | 0.00 | 0.00 | 58 | 1012.1 |
| 20260504024541 | 53 | 231 | 0.9 | 0.9 | 0.00 | 0.00 | 0.00 | 60 | 1012.1 |
| 20260504024037 | 53 | 254 | 0.9 | 0.9 | 0.00 | 0.00 | 0.00 | 60 | 1012.1 |
| 20260504023534 | 53 | 172 | 0.0 | 0.9 | 0.00 | 0.00 | 0.00 | 57 | 1012.2 |
| 20260504023030 | 53 | 214 | 0.9 | 1.7 | 0.00 | 0.00 | 0.00 | 54 | 1012.1 |
| 20260504022526 | 53 | 190 | 0.0 | 0.9 | 0.00 | 0.00 | 0.00 | 54 | 1012.2 |
| 20260504022023 | 53 | 252 | 2.6 | 2.6 | 0.00 | 0.00 | 0.00 | 55 | 1012.2 |
| 20260504021520 | 52 | 259 | 1.7 | 5.2 | 0.00 | 0.00 | 0.00 | 56 | 1012.0 |
| 20260504021017 | 52 | 194 | 0.9 | 0.9 | 0.00 | 0.00 | 0.00 | 57 | 1012.1 |
| 20260504020514 | 52 | 224 | 0.9 | 0.9 | 0.00 | 0.00 | 0.00 | 56 | 1012.2 |
| 20260504020010 | 52 | 191 | 0.0 | 0.0 | 0.00 | 0.00 | 0.00 | 54 | 1012.1 |
| 20260504015507 | 52 | 186 | 0.0 | 0.0 | 0.00 | 0.00 | 0.00 | 54 | 1012.0 |
| 20260504015003 | 52 | 190 | 0.9 | 0.9 | 0.00 | 0.00 | 0.00 | 53 | 1012.1 |
| 20260504014459 | 51 | 171 | 0.0 | 0.0 | 0.00 | 0.00 | 0.00 | 52 | 1012.0 |
| 20260504013956 | 51 | 174 | 0.0 | 0.0 | 0.00 | 0.00 | 0.00 | 51 | 1011.9 |
| 20260504013454 | 51 | 176 | 0.0 | 0.0 | 0.00 | 0.00 | 0.00 | 50 | 1011.8 |
| 20260504012950 | 51 | 191 | 0.0 | 0.0 | 0.00 | 0.00 | 0.00 | 50 | 1011.7 |
| 20260504012448 | 51 | 174 | 0.0 | 0.0 | 0.00 | 0.00 | 0.00 | 48 | 1011.8 |
| 20260504011946 | 51 | 171 | 0.0 | 0.0 | 0.00 | 0.00 | 0.00 | 47 | 1011.8 |
| 20260504011442 | 51 | 164 | 0.0 | 0.0 | 0.00 | 0.00 | 0.00 | 44 | 1011.7 |
| 20260504010938 | 51 | 169 | 0.0 | 0.0 | 0.00 | 0.00 | 0.00 | 43 | 1011.5 |
| 20260504010434 | 52 | 169 | 0.0 | 0.0 | 0.00 | 0.00 | 0.00 | 42 | 1011.5 |
| 20260504005930 | 53 | 169 | 0.0 | 0.0 | 0.00 | 0.00 | 0.00 | 42 | 1011.4 |
| 20260504005427 | 53 | 176 | 0.0 | 0.0 | 0.00 | 0.00 | 0.00 | 39 | 1011.5 |
| 20260504004925 | 54 | 177 | 0.0 | 0.0 | 0.00 | 0.00 | 0.00 | 37 | 1011.4 |
| 20260504004422 | 55 | 177 | 0.0 | 0.0 | 0.00 | 0.00 | 0.00 | 36 | 1011.3 |
| 20260504003919 | 55 | 180 | 0.0 | 0.0 | 0.00 | 0.00 | 0.00 | 34 | 1011.1 |
| 20260504003415 | 55 | 182 | 0.0 | 0.0 | 0.00 | 0.00 | 0.00 | 34 | 1011.3 |
| 20260504002912 | 56 | 172 | 0.0 | 0.0 | 0.00 | 0.00 | 0.00 | 33 | 1011.0 |
| 20260504002409 | 56 | 221 | 0.0 | 0.0 | 0.00 | 0.00 | 0.00 | 32 | 1010.9 |
| 20260504001907 | 57 | 179 | 0.0 | 0.9 | 0.00 | 0.00 | 0.00 | 31 | 1010.7 |
| 20260504001404 | 57 | 188 | 0.9 | 0.9 | 0.00 | 0.00 | 0.00 | 30 | 1010.8 |
| 20260504000900 | 57 | 229 | 0.9 | 0.9 | 0.00 | 0.00 | 0.00 | 30 | 1010.7 |
| 20260504000358 | 57 | 271 | 0.9 | 1.7 | 0.00 | 0.00 | 0.00 | 30 | 1010.7 |
| 20260503235855 | 57 | 310 | 1.7 | 2.6 | 0.00 | 0.00 | 0.00 | 30 | 1010.7 |
| 20260503235353 | 58 | 339 | 0.9 | 0.9 | 0.00 | 0.00 | 0.00 | 29 | 1010.5 |
| 20260503234850 | 58 | 240 | 1.7 | 1.7 | 0.00 | 0.00 | 0.00 | 29 | 1010.5 |
| 20260503234348 | 58 | 313 | 1.7 | 2.6 | 0.00 | 0.00 | 0.00 | 28 | 1010.6 |
| 20260503233845 | 58 | 305 | 0.9 | 1.7 | 0.00 | 0.00 | 0.00 | 28 | 1010.4 |
| 20260503233341 | 58 | 343 | 3.5 | 5.2 | 0.00 | 0.00 | 0.00 | 28 | 1010.4 |
| 20260503232837 | 58 | 10 | 0.9 | 1.7 | 0.00 | 0.00 | 0.00 | 28 | 1010.4 |
| 20260503232335 | 59 | 228 | 1.7 | 1.7 | 0.00 | 0.00 | 0.00 | 28 | 1010.2 |
| 20260503231833 | 59 | 280 | 1.7 | 2.6 | 0.00 | 0.00 | 0.00 | 27 | 1010.3 |
| 20260503231330 | 59 | 341 | 1.7 | 3.5 | 0.00 | 0.00 | 0.00 | 27 | 1010.1 |
| 20260503230825 | 59 | 5 | 3.5 | 3.5 | 0.00 | 0.00 | 0.00 | 27 | 1010.2 |
| 20260503230323 | 59 | 216 | 4.3 | 7.0 | 0.00 | 0.00 | 0.00 | 27 | 1010.2 |
| 20260503225820 | 59 | 271 | 4.3 | 6.1 | 0.00 | 0.00 | 0.00 | 26 | 1010.1 |
| 20260503225316 | 60 | 327 | 3.5 | 3.5 | 0.00 | 0.00 | 0.00 | 26 | 1010.2 |
| 20260503224812 | 60 | 251 | 6.1 | 7.8 | 0.00 | 0.00 | 0.00 | 26 | 1010.2 |
| 20260503224310 | 60 | 231 | 5.2 | 13.0 | 0.00 | 0.00 | 0.00 | 26 | 1010.0 |
| 20260503223808 | 60 | 229 | 6.1 | 7.8 | 0.00 | 0.00 | 0.00 | 25 | 1010.0 |
| 20260503223305 | 60 | 244 | 2.6 | 3.5 | 0.00 | 0.00 | 0.00 | 26 | 1010.0 |
| 20260503222800 | 60 | 277 | 5.2 | 7.0 | 0.00 | 0.00 | 0.00 | 26 | 1010.0 |
| 20260503222259 | 60 | 322 | 4.3 | 6.1 | 0.00 | 0.00 | 0.00 | 26 | 1010.0 |
| 20260503221757 | 60 | 29 | 2.6 | 3.5 | 0.00 | 0.00 | 0.00 | 26 | 1010.1 |
| 20260503221255 | 60 | 264 | 4.3 | 6.1 | 0.00 | 0.00 | 0.00 | 26 | 1010.0 |
| 20260503220751 | 60 | 197 | 3.5 | 7.0 | 0.00 | 0.00 | 0.00 | 26 | 1009.9 |
| 20260503220248 | 60 | 34 | 3.5 | 5.2 | 0.00 | 0.00 | 0.00 | 27 | 1009.9 |
| 20260503215745 | 60 | 324 | 6.1 | 7.8 | 0.00 | 0.00 | 0.00 | 26 | 1010.0 |
| 20260503215242 | 60 | 244 | 7.0 | 8.7 | 0.00 | 0.00 | 0.00 | 26 | 1010.1 |
| 20260503214740 | 60 | 304 | 7.0 | 8.7 | 0.00 | 0.00 | 0.00 | 27 | 1010.0 |
| 20260503214236 | 60 | 175 | 7.8 | 12.2 | 0.00 | 0.00 | 0.00 | 26 | 1009.9 |
| 20260503213735 | 60 | 233 | 3.5 | 8.7 | 0.00 | 0.00 | 0.00 | 27 | 1009.8 |
| 20260503213232 | 60 | 265 | 3.5 | 6.1 | 0.00 | 0.00 | 0.00 | 27 | 1009.8 |
| 20260503212728 | 60 | 317 | 6.1 | 9.6 | 0.00 | 0.00 | 0.00 | 27 | 1009.9 |
| 20260503212226 | 60 | 275 | 7.8 | 12.2 | 0.00 | 0.00 | 0.00 | 26 | 1010.0 |
| 20260503211723 | 61 | 306 | 7.0 | 8.7 | 0.00 | 0.00 | 0.00 | 27 | 1009.8 |
| 20260503211219 | 60 | 333 | 2.6 | 5.2 | 0.00 | 0.00 | 0.00 | 28 | 1009.7 |
| 20260503210715 | 60 | 53 | 5.2 | 7.8 | 0.00 | 0.00 | 0.00 | 27 | 1009.6 |
| 20260503210212 | 60 | 318 | 7.8 | 14.8 | 0.00 | 0.00 | 0.00 | 28 | 1009.7 |
| 20260503205707 | 60 | 280 | 5.2 | 11.3 | 0.00 | 0.00 | 0.00 | 28 | 1009.6 |
| 20260503205204 | 59 | 300 | 7.0 | 9.6 | 0.00 | 0.00 | 0.00 | 28 | 1009.7 |
| 20260503204700 | 59 | 316 | 4.3 | 8.7 | 0.00 | 0.00 | 0.00 | 29 | 1009.7 |
| 20260503204158 | 59 | 320 | 5.2 | 8.7 | 0.00 | 0.00 | 0.00 | 29 | 1009.6 |
| 20260503203655 | 59 | 19 | 6.1 | 8.7 | 0.00 | 0.00 | 0.00 | 28 | 1009.8 |
| 20260503203153 | 59 | 308 | 7.0 | 12.2 | 0.00 | 0.00 | 0.00 | 28 | 1009.7 |